DW8050 Weather Reports


time (UTC)temp
C
wind
direction
speed
KPH
gust
KPH
rain 1hr
cm
rain 24hr
cm
rain mn
cm
humidity
%
barometer
mb
20260508003030 7 342 4.8 11.3 0.00 0.00 0.00 68 1007.1
20260508002516 7 323 4.8 9.7 0.00 0.00 0.00 67 1007.2
20260508002020 7 312 6.4 11.3 0.00 0.00 0.00 66 1007.0
20260508001541 7 311 3.2 11.3 0.00 0.00 0.00 65 1007.0
20260508001016 7 295 3.2 11.3 0.00 0.00 0.00 65 1007.0
20260508000517 7 291 3.2 8.0 0.00 0.00 0.00 66 1007.0
20260508000030 7 306 3.2 6.4 0.00 0.00 0.00 66 1006.9
20260507235519 7 319 3.2 11.3 0.00 0.00 0.00 66 1006.9
20260507235015 8 288 3.2 11.3 0.00 0.00 0.00 65 1006.8
20260507234533 8 292 3.2 12.9 0.00 0.00 0.00 65 1006.8
20260507234016 8 293 3.2 14.5 0.00 0.00 0.00 65 1006.8
20260507233519 8 298 6.4 17.7 0.00 0.00 0.00 64 1006.6
20260507233034 8 302 6.4 17.7 0.00 0.00 0.00 65 1006.6
20260507232515 8 302 3.2 22.5 0.00 0.00 0.00 65 1006.5
20260507232018 8 306 6.4 22.5 0.00 0.00 0.00 64 1006.5
20260507231535 8 296 9.7 22.5 0.00 0.00 0.00 63 1006.5
20260507231016 8 309 9.7 20.9 0.00 0.00 0.00 62 1006.5
20260507230516 8 290 9.7 20.9 0.00 0.00 0.00 63 1006.6
20260507230032 8 298 8.0 20.9 0.00 0.00 0.00 62 1006.5
20260507225516 8 294 9.7 17.7 0.00 0.00 0.00 63 1006.6
20260507225017 8 307 8.0 17.7 0.00 0.00 0.00 64 1006.6
20260507224530 7 306 8.0 19.3 0.00 0.00 0.00 65 1006.5
20260507224016 7 313 9.7 24.1 0.00 0.00 0.00 66 1006.4
20260507223516 7 276 9.7 27.4 0.00 0.00 0.00 67 1006.5
20260507223035 7 317 14.5 29.0 0.00 0.00 0.00 68 1006.6
20260507222519 7 298 11.3 29.0 0.00 0.00 0.00 66 1006.5
20260507222018 8 284 17.7 29.0 0.00 0.00 0.00 63 1006.7
20260507221539 9 305 11.3 22.5 0.00 0.00 0.00 61 1006.5
20260507221018 10 318 6.4 27.4 0.00 0.00 0.00 63 1006.2
20260507220518 10 23 9.7 32.2 0.00 0.00 0.00 62 1006.2
20260507220033 10 278 17.7 32.2 0.00 0.00 0.00 58 1006.1
20260507215516 10 280 17.7 29.0 0.00 0.00 0.00 59 1006.1
20260507215017 10 272 12.9 27.4 0.00 0.00 0.00 60 1006.2
20260507214532 10 277 12.9 29.0 0.00 0.00 0.00 61 1006.1
20260507214017 9 289 16.1 29.0 0.00 0.00 0.00 60 1006.0
20260507213516 9 284 14.5 22.5 0.00 0.00 0.00 61 1006.0
20260507213033 9 303 14.5 22.5 0.00 0.00 0.00 60 1005.9
20260507212515 9 281 8.0 22.5 0.00 0.00 0.00 62 1006.0
20260507212017 9 259 12.9 20.9 0.00 0.00 0.00 63 1005.9
20260507211530 8 311 12.9 24.1 0.00 0.00 0.00 63 1005.9
20260507211020 8 268 9.7 24.1 0.00 0.00 0.00 64 1006.0
20260507210519 9 296 16.1 32.2 0.00 0.00 0.00 64 1005.9
20260507210030 9 300 16.1 32.2 0.00 0.00 0.00 61 1005.9
20260507205516 9 280 16.1 25.7 0.00 0.00 0.00 63 1005.9
20260507205017 8 293 14.5 27.4 0.00 0.00 0.00 65 1005.9
20260507204532 8 294 16.1 29.0 0.00 0.00 0.00 66 1005.8
20260507204016 8 298 14.5 30.6 0.00 0.00 0.00 65 1005.8
20260507203520 9 309 20.9 30.6 0.00 0.00 0.00 64 1005.7
20260507203051 10 308 16.1 30.6 0.00 0.00 0.00 61 1005.5
20260507202518 10 306 14.5 32.2 0.00 0.00 0.00 61 1005.5
20260507202016 10 291 17.7 32.2 0.00 0.00 0.00 60 1005.4
20260507201532 10 261 17.7 32.2 0.00 0.00 0.00 59 1005.4
20260507201017 10 267 19.3 37.0 0.00 0.00 0.00 56 1005.4
20260507200521 10 293 17.7 37.0 0.00 0.00 0.00 57 1005.4
20260507200035 10 285 20.9 37.0 0.00 0.00 0.00 57 1005.4
20260507195516 9 272 20.9 33.8 0.00 0.00 0.00 60 1005.3
20260507195016 9 284 14.5 29.0 0.00 0.00 0.00 59 1005.2
20260507194535 9 290 12.9 27.4 0.00 0.00 0.00 59 1005.2
20260507194019 9 300 17.7 27.4 0.00 0.00 0.00 59 1005.2
20260507193516 8 285 16.1 33.8 0.00 0.00 0.00 62 1005.2
20260507193030 9 277 17.7 33.8 0.00 0.00 0.00 63 1005.2
20260507192516 9 297 19.3 32.2 0.00 0.00 0.00 61 1005.2
20260507192015 10 291 17.7 32.2 0.00 0.00 0.00 58 1005.2
20260507191536 10 293 19.3 32.2 0.00 0.00 0.00 57 1004.9
20260507191017 11 293 19.3 32.2 0.00 0.00 0.00 53 1004.8
20260507190516 11 264 20.9 37.0 0.00 0.00 0.00 48 1004.7
20260507190032 11 265 20.9 40.2 0.00 0.00 0.00 48 1004.8
20260507185516 11 292 16.1 40.2 0.00 0.00 0.00 48 1004.8
20260507185016 12 277 25.7 40.2 0.00 0.00 0.00 48 1004.7
20260507184530 11 294 25.7 43.5 0.00 0.00 0.00 48 1004.6
20260507184017 11 286 30.6 43.5 0.00 0.00 0.00 51 1004.6
20260507183516 10 284 25.7 38.6 0.00 0.00 0.00 51 1004.4
20260507183035 10 273 22.5 38.6 0.00 0.00 0.00 51 1004.6
20260507182516 10 263 17.7 35.4 0.00 0.00 0.00 54 1004.6
20260507182016 10 273 16.1 30.6 0.00 0.00 0.00 52 1004.6
20260507181535 10 267 16.1 30.6 0.00 0.00 0.00 53 1004.6
20260507181020 10 282 19.3 30.6 0.00 0.00 0.00 54 1004.6
20260507180516 10 273 16.1 22.5 0.00 0.00 0.00 54 1004.6
20260507180035 10 263 14.5 30.6 0.00 0.00 0.00 57 1004.5
20260507175519 10 293 16.1 30.6 0.00 0.00 0.00 55 1004.5
20260507175017 10 281 16.1 29.0 0.00 0.00 0.00 55 1004.5
20260507174540 10 312 14.5 30.6 0.00 0.00 0.00 53 1004.5
20260507174020 10 307 19.3 38.6 0.00 0.00 0.00 50 1004.5
20260507173516 10 260 14.5 38.6 0.00 0.00 0.00 52 1004.4
20260507173052 10 287 25.7 38.6 0.00 0.00 0.00 54 1004.4
20260507172517 10 236 20.9 37.0 0.00 0.00 0.00 53 1004.3
20260507172016 10 270 25.7 37.0 0.00 0.00 0.00 51 1004.4
20260507171540 10 284 22.5 33.8 0.00 0.00 0.00 53 1004.4
20260507171017 10 275 20.9 33.8 0.00 0.00 0.00 53 1004.3
20260507170516 10 264 19.3 33.8 0.00 0.00 0.00 52 1004.3
20260507170038 10 275 20.9 37.0 0.00 0.00 0.00 53 1004.4
20260507165521 10 265 20.9 38.6 0.00 0.03 0.00 52 1004.3
20260507165016 11 268 24.1 38.6 0.00 0.03 0.00 49 1004.3
20260507164534 11 288 24.1 40.2 0.00 0.03 0.00 53 1004.2
20260507164017 11 276 27.4 40.2 0.00 0.03 0.00 50 1004.3
20260507163520 11 266 19.3 38.6 0.00 0.03 0.00 51 1004.2
20260507163032 11 265 20.9 35.4 0.00 0.03 0.00 49 1004.2
20260507162520 11 264 24.1 33.8 0.00 0.03 0.00 51 1004.1
20260507162016 11 261 17.7 38.6 0.00 0.03 0.00 48 1004.1
20260507161543 11 242 24.1 38.6 0.00 0.03 0.00 48 1004.2
20260507161016 12 285 17.7 33.8 0.00 0.03 0.00 48 1004.0
20260507160517 11 234 24.1 32.2 0.00 0.03 0.00 48 1004.0
20260507160030 11 240 22.5 37.0 0.00 0.03 0.00 49 1004.2
20260507155516 11 292 14.5 37.0 0.00 0.13 0.00 50 1004.1
20260507155016 11 278 25.7 37.0 0.00 0.13 0.00 50 1004.1
20260507154534 11 236 24.1 38.6 0.00 0.13 0.00 54 1004.1
20260507154017 11 231 32.2 40.2 0.00 0.13 0.00 58 1004.0
20260507153520 11 236 30.6 41.8 0.00 0.13 0.00 58 1004.1
20260507153033 11 240 32.2 41.8 0.00 0.13 0.00 61 1004.1
20260507152517 10 225 24.1 43.5 0.00 0.13 0.00 63 1004.1
20260507152026 10 244 27.4 43.5 0.00 0.13 0.00 60 1004.2
20260507151531 10 227 29.0 43.5 0.00 0.13 0.00 61 1004.1
20260507151017 10 207 29.0 40.2 0.00 0.13 0.00 61 1004.1
20260507150523 10 226 29.0 40.2 0.00 0.13 0.00 61 1004.2
20260507150037 10 223 27.4 38.6 0.00 0.13 0.00 62 1004.2
20260507145517 10 229 30.6 38.6 0.00 0.25 0.00 62 1004.3
20260507145023 10 222 25.7 40.2 0.00 0.25 0.00 61 1004.3
20260507144532 10 238 27.4 40.2 0.00 0.25 0.00 62 1004.3
20260507144017 10 211 27.4 38.6 0.00 0.25 0.00 63 1004.4
20260507143519 10 231 29.0 38.6 0.00 0.25 0.00 63 1004.3
20260507143043 10 217 25.7 35.4 0.00 0.25 0.00 63 1004.4
20260507142518 9 229 24.1 35.4 0.00 0.25 0.00 62 1004.4
20260507142027 9 237 25.7 37.0 0.00 0.25 0.00 65 1004.5
20260507141546 9 214 25.7 37.0 0.00 0.25 0.00 65 1004.5
20260507141016 9 233 29.0 37.0 0.00 0.25 0.00 64 1004.6
20260507140519 9 225 25.7 33.8 0.00 0.25 0.00 67 1004.5
20260507140035 9 230 25.7 33.8 0.00 0.25 0.00 65 1004.6
20260507135517 9 241 24.1 30.6 0.00 0.33 0.00 67 1004.6
20260507135017 8 236 24.1 30.6 0.00 0.33 0.00 65 1004.6
20260507134535 8 232 24.1 32.2 0.00 0.33 0.00 67 1004.6
20260507134016 8 213 24.1 32.2 0.00 0.33 0.00 67 1004.6
20260507133517 8 240 24.1 30.6 0.00 0.33 0.00 66 1004.6
20260507133047 8 240 22.5 33.8 0.00 0.33 0.00 70 1004.8
20260507132523 8 242 25.7 33.8 0.00 0.33 0.00 68 1004.8
20260507132016 8 258 22.5 33.8 0.00 0.33 0.00 69 1004.8
20260507131537 8 237 25.7 33.8 0.00 0.33 0.00 72 1004.9
20260507131018 7 222 24.1 32.2 0.00 0.33 0.00 73 1004.9
20260507130517 7 229 24.1 32.2 0.00 0.33 0.00 72 1005.0
20260507130036 7 246 24.1 30.6 0.00 0.33 0.00 73 1005.0
20260507125518 6 244 19.3 29.0 0.00 0.33 0.00 76 1005.0
20260507125016 6 229 20.9 29.0 0.00 0.33 0.00 75 1005.1
20260507124532 6 257 16.1 30.6 0.00 0.33 0.00 77 1005.1
20260507124017 6 243 20.9 30.6 0.00 0.33 0.00 75 1005.1
20260507123522 6 237 20.9 29.0 0.00 0.33 0.00 77 1005.2
20260507123038 6 257 19.3 30.6 0.00 0.33 0.00 75 1005.3
20260507122518 6 255 24.1 33.8 0.00 0.33 0.00 75 1005.2
20260507122017 6 260 24.1 33.8 0.00 0.33 0.00 75 1005.2
20260507121530 6 250 22.5 29.0 0.00 0.33 0.00 76 1005.2
20260507121017 6 241 19.3 29.0 0.00 0.33 0.00 79 1005.3
20260507120516 6 246 19.3 29.0 0.00 0.33 0.00 81 1005.3
20260507120037 6 243 20.9 29.0 0.00 0.33 0.00 83 1005.2
20260507115517 6 250 20.9 29.0 0.00 0.33 0.00 83 1005.2
20260507115016 6 235 19.3 29.0 0.00 0.33 0.00 85 1005.2
20260507114542 6 237 20.9 29.0 0.00 0.33 0.00 85 1005.1
20260507114016 6 250 20.9 33.8 0.00 0.33 0.00 85 1005.1
20260507113517 6 250 24.1 33.8 0.00 0.33 0.00 85 1005.3
20260507113036 6 244 20.9 29.0 0.00 0.33 0.00 87 1005.2
20260507112517 6 238 20.9 32.2 0.00 0.33 0.00 88 1005.1
20260507112020 6 242 20.9 32.2 0.00 0.33 0.00 88 1005.0
20260507111532 6 244 20.9 27.4 0.00 0.33 0.00 89 1005.0
20260507111017 6 221 20.9 27.4 0.00 0.33 0.00 90 1004.9
20260507110518 6 238 17.7 22.5 0.00 0.33 0.00 91 1005.0
20260507110039 6 227 16.1 22.5 0.00 0.33 0.00 91 1004.8
20260507105517 6 246 16.1 22.5 0.00 0.33 0.00 91 1004.9
20260507105017 6 235 16.1 20.9 0.00 0.33 0.00 91 1004.8
20260507104531 6 250 17.7 20.9 0.00 0.33 0.00 91 1004.8
20260507104017 6 239 12.9 20.9 0.00 0.33 0.00 91 1004.7
20260507103516 6 244 16.1 19.3 0.00 0.33 0.00 91 1004.7
20260507103043 6 246 12.9 17.7 0.00 0.33 0.00 92 1004.8
20260507102516 6 223 11.3 16.1 0.00 0.33 0.00 92 1004.8
20260507102017 5 221 8.0 14.5 0.00 0.33 0.00 92 1004.9
20260507101538 5 239 9.7 14.5 0.00 0.33 0.00 92 1004.8
20260507101017 5 243 8.0 12.9 0.00 0.33 0.00 92 1005.0
20260507100518 5 232 8.0 16.1 0.00 0.33 0.00 91 1004.9
20260507100037 5 249 9.7 16.1 0.00 0.33 0.00 91 1004.9
20260507095520 5 238 8.0 14.5 0.00 0.33 0.00 91 1004.9
20260507095017 5 236 8.0 14.5 0.00 0.33 0.00 91 1005.0
20260507094536 5 244 9.7 17.7 0.00 0.33 0.00 91 1005.0
20260507094023 5 248 8.0 17.7 0.00 0.33 0.00 91 1005.1
20260507093515 5 244 12.9 17.7 0.00 0.33 0.00 91 1005.3
20260507093032 5 250 9.7 17.7 0.00 0.33 0.00 91 1005.1
20260507092517 5 236 11.3 17.7 0.00 0.33 0.00 91 1005.1
20260507092016 5 240 12.9 19.3 0.00 0.33 0.00 91 1005.0
20260507091535 5 243 11.3 19.3 0.00 0.33 0.00 92 1004.9
20260507091018 5 233 11.3 16.1 0.00 0.33 0.00 92 1005.0
20260507090517 5 229 9.7 14.5 0.00 0.33 0.00 92 1004.9
20260507090035 5 225 6.4 11.3 0.00 0.33 0.00 92 1004.9
20260507085517 5 229 8.0 11.3 0.00 0.33 0.00 92 1004.9
20260507085017 5 212 6.4 11.3 0.00 0.33 0.00 92 1005.0
20260507084539 5 226 6.4 11.3 0.00 0.33 0.00 92 1004.9
20260507084021 5 240 6.4 11.3 0.00 0.33 0.00 92 1005.0
20260507083517 5 223 4.8 8.0 0.00 0.33 0.00 92 1005.1
20260507083033 5 237 4.8 11.3 0.00 0.33 0.00 92 1005.2
20260507082518 5 229 6.4 12.9 0.00 0.33 0.00 92 1005.2
20260507082017 5 234 8.0 12.9 0.00 0.33 0.00 92 1005.2
20260507081537 5 250 6.4 11.3 0.00 0.33 0.00 92 1005.1
20260507081017 5 245 6.4 8.0 0.00 0.33 0.00 92 1005.3
20260507080516 5 258 4.8 8.0 0.00 0.33 0.00 92 1005.3
20260507080041 5 257 4.8 8.0 0.00 0.33 0.00 92 1005.2
20260507075517 5 244 4.8 8.0 0.00 0.33 0.00 92 1005.3
20260507075017 5 251 3.2 6.4 0.00 0.33 0.00 92 1005.4
20260507074530 5 248 3.2 8.0 0.00 0.33 0.00 92 1005.4
20260507074016 5 242 4.8 8.0 0.00 0.33 0.00 92 1005.4
20260507073519 5 240 4.8 8.0 0.00 0.33 0.00 92 1005.3
20260507073031 5 232 3.2 6.4 0.00 0.33 0.00 92 1005.3
20260507072517 5 230 4.8 6.4 0.00 0.33 0.00 92 1005.4
20260507072016 5 237 3.2 11.3 0.00 0.33 0.00 92 1005.3
20260507071537 5 241 4.8 12.9 0.00 0.33 0.00 91 1005.3
20260507071017 5 239 8.0 12.9 0.00 0.33 0.00 92 1005.4
20260507070517 5 254 4.8 8.0 0.00 0.33 0.00 92 1005.5
20260507070044 5 240 3.2 4.8 0.00 0.33 0.00 92 1005.5
20260507065516 5 236 3.2 4.8 0.00 0.33 0.00 92 1005.4
20260507065017 5 244 3.2 4.8 0.00 0.33 0.00 92 1005.4
20260507064544 5 244 3.2 4.8 0.00 0.33 0.00 92 1005.4
20260507064018 5 244 3.2 3.2 0.00 0.33 0.00 92 1005.4
20260507063518 5 244 3.2 6.4 0.00 0.33 0.00 92 1005.5
20260507063036 5 242 3.2 6.4 0.00 0.33 0.00 92 1005.4
20260507062518 5 239 4.8 8.0 0.00 0.33 0.00 91 1005.5
20260507062017 5 237 4.8 8.0 0.00 0.33 0.00 92 1005.6
20260507061532 5 257 3.2 6.4 0.00 0.33 0.00 92 1005.6
20260507061020 5 242 4.8 9.7 0.00 0.33 0.00 91 1005.6
20260507060515 5 233 4.8 9.7 0.00 0.33 0.00 91 1005.6
20260507060032 5 232 6.4 9.7 0.00 0.33 0.00 92 1005.7
20260507055516 5 234 4.8 8.0 0.00 0.33 0.00 92 1005.8
20260507055011 5 227 4.8 6.4 0.00 0.33 0.00 92 1005.8
20260507054530 5 223 4.8 6.4 0.00 0.33 0.00 92 1005.9
20260507054015 5 225 4.8 8.0 0.00 0.33 0.00 92 1006.0
20260507053516 5 221 4.8 8.0 0.00 0.33 0.00 92 1006.1
20260507053032 5 213 4.8 9.7 0.00 0.33 0.00 92 1006.1
20260507052515 5 225 4.8 9.7 0.00 0.33 0.00 92 1006.1
20260507052016 5 228 6.4 9.7 0.00 0.33 0.00 92 1006.1
20260507051532 5 238 6.4 9.7 0.00 0.33 0.00 92 1006.2
20260507051016 5 229 6.4 9.7 0.00 0.33 0.00 91 1006.2
20260507050515 5 227 6.4 9.7 0.00 0.33 0.00 91 1006.4
20260507050033 5 222 6.4 9.7 0.00 0.33 0.00 91 1006.5
20260507045515 5 229 6.4 9.7 0.00 0.33 0.00 91 1006.6
20260507045016 5 235 4.8 8.0 0.00 0.33 0.00 91 1006.6
20260507044530 5 240 4.8 8.0 0.00 0.33 0.00 91 1006.6
20260507044015 5 238 4.8 8.0 0.00 0.33 0.00 91 1006.7
20260507043516 5 229 6.4 8.0 0.00 0.33 0.00 91 1006.6
20260507043031 5 225 4.8 8.0 0.00 0.33 0.00 90 1006.7
20260507042516 5 227 4.8 8.0 0.00 0.33 0.00 90 1006.7
20260507042019 6 222 4.8 9.7 0.00 0.33 0.00 90 1006.8
20260507041533 6 221 6.4 9.7 0.00 0.33 0.00 90 1006.9
20260507041019 6 229 6.4 12.9 0.00 0.33 0.00 90 1006.8
20260507040517 6 221 8.0 12.9 0.00 0.33 0.00 90 1006.9
20260507040037 6 225 9.7 12.9 0.00 0.33 0.00 90 1006.9
20260507035520 6 224 8.0 16.1 0.00 0.33 0.33 90 1007.0
20260507035016 6 234 9.7 16.1 0.00 0.33 0.33 90 1007.0
20260507034539 6 244 9.7 14.5 0.00 0.33 0.33 90 1007.0
20260507034020 6 236 9.7 14.5 0.00 0.33 0.33 89 1007.1
20260507033516 6 242 9.7 14.5 0.00 0.33 0.33 89 1007.1
20260507033043 6 230 9.7 14.5 0.00 0.33 0.33 89 1007.1
20260507032517 6 228 9.7 14.5 0.00 0.33 0.33 89 1007.2
20260507032019 6 231 8.0 14.5 0.00 0.33 0.33 89 1007.1
20260507031550 6 232 8.0 14.5 0.00 0.33 0.33 89 1007.2
20260507031021 6 233 8.0 14.5 0.00 0.33 0.33 89 1007.2
20260507030516 6 232 8.0 14.5 0.00 0.33 0.33 89 1007.3
20260507030033 6 232 9.7 16.1 0.00 0.33 0.33 88 1007.3
20260507025516 6 213 9.7 16.1 0.00 0.33 0.33 88 1007.4
20260507025020 6 235 9.7 16.1 0.00 0.33 0.33 88 1007.4
20260507024534 6 238 9.7 17.7 0.00 0.33 0.33 87 1007.3
20260507024015 6 238 9.7 17.7 0.00 0.33 0.33 87 1007.4
20260507023515 6 227 9.7 14.5 0.00 0.33 0.33 87 1007.5
20260507023030 6 230 9.7 16.1 0.00 0.33 0.33 87 1007.5
20260507022516 6 226 9.7 16.1 0.00 0.33 0.33 88 1007.5
20260507022016 6 229 11.3 16.1 0.00 0.33 0.33 88 1007.6
20260507021530 6 223 9.7 16.1 0.00 0.33 0.33 88 1007.6
20260507021015 6 228 8.0 16.1 0.00 0.33 0.33 88 1007.6
20260507020516 6 233 9.7 14.5 0.00 0.33 0.33 88 1007.7
20260507020030 6 226 9.7 14.5 0.00 0.33 0.33 88 1007.7
20260507015515 6 232 8.0 12.9 0.00 0.33 0.33 88 1007.7
20260507015015 6 219 8.0 11.3 0.00 0.33 0.33 89 1007.8
20260507014541 6 215 4.8 8.0 0.00 0.33 0.33 90 1007.9
20260507014016 6 206 6.4 8.0 0.00 0.33 0.33 90 1007.9
20260507013516 6 206 4.8 8.0 0.00 0.33 0.33 90 1007.9
20260507013039 6 217 4.8 8.0 0.00 0.33 0.33 90 1008.0
20260507012516 6 195 4.8 6.4 0.00 0.33 0.33 90 1007.7
20260507012016 6 196 4.8 6.4 0.00 0.33 0.33 90 1007.8
20260507011536 6 198 3.2 4.8 0.00 0.33 0.33 90 1007.8
20260507011015 6 199 3.2 4.8 0.00 0.33 0.33 90 1007.7
20260507010516 6 200 3.2 4.8 0.00 0.33 0.33 89 1007.7
20260507010039 6 194 4.8 4.8 0.00 0.33 0.33 89 1007.6
20260507005515 7 207 3.2 4.8 0.00 0.33 0.33 88 1007.5
20260507005023 7 208 3.2 4.8 0.00 0.33 0.33 87 1007.5
20260507004532 7 211 3.2 8.0 0.00 0.33 0.33 87 1007.4
20260507004016 7 206 4.8 11.3 0.00 0.33 0.33 86 1007.4
20260507003515 7 192 6.4 11.3 0.00 0.33 0.33 86 1007.3